Location: Bamobli
(6.6379°N, 10.9396°W)
Time: 08:22:41
(UTC+00:00)

BEESAT 2 - Visible Passes

Search period start: 11 May 2021 00:00
Search period end: 21 May 2021 00:00
Orbit: 492 x 528 km, 64.9° (Epoch: 10 May)

Date Brightness Start Highest point End Pass type
(mag) Time Alt. Az. Time Alt. Az. Time Alt. Az.
15 May ? 06:02:38 10° S 06:06:22 45° ESE 06:10:08 10° NE visible
16 May ? 05:45:03 10° S 05:48:46 44° ESE 05:52:30 10° NE visible
17 May ? 05:27:28 10° S 05:31:10 42° ESE 05:34:53 10° NE visible
18 May ? 05:10:37 15° S 05:13:33 41° ESE 05:17:15 10° NE visible
19 May ? 04:54:29 28° SSE 04:55:57 39° ESE 04:59:38 10° NE visible
20 May ? 04:38:15 38° ESE 04:38:20 38° ESE 04:41:59 10° NE visible
